STARLINK-1622, 46128

Orbit data source: Space-Track

STARLINK-1622, 46128 is a payload satellite owned by SpaceX/Seattle (US) in LEO that was launched on Tue, 18 Aug 2020 UTC via an FALCON 9 launch vehicle from the Air Force Eastern Test Range (AFETR). Payload-class satellites include a variety of spacecraft equipped with specific instruments for various scientific and technological missions. These include communications satellites like Starlink; space stations such as the ISS; scientific satellites like the Hubble; Earth observation satellites from companies like Planet Labs, Umbra, and HawkEye 360; GPS; miniature CubeSats for education and research; and military/defense satellites.

Loading next visibility...
Identifier
46128, 2020-057M
Orbit
LEO
Country
Flag of USUS
Related business
Manufacturer
SpaceX/Seattle
Mission
Partially operational Commercial Communications
Bus & Motor
STARLINK, Unknown motor
Mass
260 kg wet, ~248 kg dry
Launch date (UTC)
2020-08-18 (5 years ago)
Launch vehicle
FALCON 9
Launch site
Air Force Eastern Test Range (AFETR)
Object type
Payload
Rocket body
Debris
Shape & HBR
Box + 1 Pan, 10.1 m
Radar Cross Section
13.562 m², Large (>1 m²)

Expand to show TLE details & history
Last TLE update: 13 hours ago

TLE from 13 hours ago
0 STARLINK-1622
1 46128U 20057M   25291.02906076  .00111628  00000-0  37236-2 0  9996
2 46128  53.0358 184.3287 0011675  73.7625 286.4658 15.30151122285308
Epoch: 2025-10-18T00:41Z
TLE epoch observation values (Epoch: 2025-10-18T00:41:50.849Z)
Latitude
-0.00001°
Longitude
147.10087°
Altitude
473.988 km
Speed
7.631 km/s
True Right ascension
12h 17m 18s
True Declination
0° 00' 00"
Sunlit
Object was in daylight at epoch
Visualization orbit readout
Latitude
Unknown
Longitude
Unknown
Altitude
Unknown
Speed
Unknown
Apparent Right ascension
Unknown
Apparent Declination
Unknown
Sunlit
N/A
Visualization observer readout
Local Sidereal Time
08:09:57
Azimuth
Unknown
Elevation
Unknown
Doppler factor
Unknown
Orbital elements
Apogee altitude
483.639 km
Perigee altitude
467.636 km
Semi-major axis
6,853.775 km
Eccentricity
0.00117
Inclination
53.0358°
RAAN
184.3287°
Arg. of periapsis
73.7625°
True anomaly
286.33745°
Mean anomaly
286.4658°
Eccentric anomaly
286.40163°
Mean motion
3.82515 °/min
Orbital period
94.11 mins
BSTAR
0.0037236
Loading maneuver chart data...
Computing Atmospheric mass density...

Documentation

Showing up to 5 results
|